This demonstration page uses our WeatherBlox Daily Observations layout. Learn more.

Left ArrowRight Arrow

Hourly Observations for June 10, 2018

Temp ( °F °C ) Dew Point ( °F °C ) Humidity (%) Winds ( mph kmh ) Pressure ( in mb ) Visibility ( mi km ) Precip ( " mm )
12:54 am 00:54 Clear 78 25.6 69 20.6 74 74 S 5 7 29.75 1007 10 16 0.00 0.00
1:54 am 01:54 Clear 80 26.7 69 20.6 69 69 S 12 19 29.72 1007 10 16 0.00 0.00
2:54 am 02:54 Clear 79 26.1 69 20.6 72 72 SSW 6 9 29.72 1007 10 16 0.00 0.00
3:35 am 03:35 Clear with Nearby Thunderstorms 79 26.1 68 20 69 69 Calm 29.71 1006 10 16 0.00 0.00
3:50 am 03:50 Clear with Light Rain 79 26 68 20 70 70 SSE 3 6 29.71 1006 10 16 0.00 0.03
3:54 am 03:54 Clear with Light Rain 78 25.6 69 20.6 74 74 SSE 3 6 29.72 1007 10 16 0.00 0.03
4:54 am 04:54 Mostly Clear 77 25 68 20 74 74 SSE 8 13 29.72 1006 10 16 0.00 0.03
5:54 am 05:54 Clear 73 22.8 69 20.6 87 87 NNE 9 15 29.75 1008 10 16 0.00 0.00
6:54 am 06:54 Mostly Sunny 74 23.3 69 20.6 85 85 NE 10 17 29.77 1008 10 16 0.00 0.00
7:54 am 07:54 Sunny 74 23.3 67 19.4 79 79 ENE 17 28 29.77 1008 10 16 0.00 0.00
8:54 am 08:54 Sunny 78 25.6 69 20.6 74 74 E 13 20 29.77 1008 10 16 0.00 0.00
9:54 am 09:54 Sunny 79 26.1 68 20 69 69 E 15 24 29.77 1008 10 16 0.00 0.00
10:54 am 10:54 Sunny 83 28.3 69 20.6 63 63 ESE 15 24 29.74 1007 10 16 0.00 0.00
11:54 am 11:54 Sunny 85 29.4 68 20 57 57 SE 20 31 29.72 1006 10 16 0.00 0.00
12:54 pm 12:54 Sunny 87 30.6 70 21.1 57 57 SE 20 31 29.70 1006 10 16 0.00 0.00
1:54 pm 13:54 Sunny 89 31.7 71 21.7 55 55 ESE 17 28 29.67 1005 10 16 0.00 0.00
2:54 pm 14:54 Sunny 90 32.2 71 21.7 54 54 SE 16 26 29.65 1004 10 16 0.00 0.00
3:54 pm 15:54 Sunny 91 32.8 71 21.7 52 52 SE 23 37 29.62 1003 10 16 0.00 0.00
4:54 pm 16:54 Sunny 91 32.8 72 22.2 54 54 E 20 31 29.60 1003 10 16 0.00 0.00
5:54 pm 17:54 Sunny 89 31.7 71 21.7 55 55 ESE 23 37 29.60 1002 10 16 0.00 0.00
6:54 pm 18:54 Sunny 88 31.1 70 21.1 55 55 ESE 21 33 29.60 1002 10 16 0.00 0.00
7:54 pm 19:54 Sunny 87 30.6 70 21.1 57 57 ESE 21 33 29.60 1002 10 16 0.00 0.00
8:54 pm 20:54 Sunny 85 29.4 70 21.1 61 61 ESE 17 28 29.60 1002 10 16 0.00 0.00
9:54 pm 21:54 Clear 84 28.9 70 21.1 63 63 ESE 17 28 29.61 1003 10 16 0.00 0.00
10:54 pm 22:54 Clear 82 27.8 70 21.1 67 67 ESE 16 26 29.62 1003 10 16 0.00 0.00
11:54 pm 23:54 Clear 82 27.8 70 21.1 67 67 SE 12 19 29.62 1003 10 16 0.00 0.00

Powered by AerisWeather